{"data":{"norad_id":69608,"intl_designator":"2026-140S","name":"KUIPER-00538","alt_names":[],"object_type":"PAYLOAD","status":"ACTIVE","operator":null,"country":"US","launch_date":"2026-06-17","launch_site_code":"FRGUI","launch_vehicle":null,"mission":null,"orbit_class":"UNKNOWN","rcs_meters":null,"size_class":null,"mass_kg":null,"dimensions":null,"purposes":[],"wikipedia_slug":null,"has_3d_model":false,"image_url":null,"decayed_at":null,"tle_current":{"epoch":"2026-09-19T20:33:44.673984Z","epoch_age_seconds":84615,"freshness":"FRESH","line1":"1 69608U 26140S   26262.85676706  .00001733  00000+0  25618-3 0  9993","line2":"2 69608  51.9041 319.4888 0000707  20.2099 339.8892 14.79945452 15545","mean_motion":14.79945452,"eccentricity":7.07e-5,"inclination_deg":51.9041,"raan_deg":319.4888,"arg_perigee_deg":20.2099,"mean_anomaly_deg":339.8892,"bstar":0.00025618,"rev_number":1554,"period_min":97.300883492292,"perigee_km":629.00088189638,"apogee_km":629.99176124805,"semimajor_km":7007.6333215722,"source":"CELESTRAK","updated_at":"2026-09-20T09:00:25.002898Z"}}}